RH
14 18 25 32 32 29 24 19 17 14 10 10 12 12 20 35 43 50 60 66 65 66 68 69 66 64 65 60 53 52 50 42 35 30 24 24 27 30 31 28 22 17 16 20 30 40 45 46 49 55 61 69 78 87 90 83 72 66 64 66 71 73 73 68 50 34 28 25 22 21 21 20 17 14 12 14 15 15 14 16 17 17 15 14 14
10 12 17 19 19 18 15 12 11 9 9 12 11 14 33 54 58 61 71 73 65 60 58 56 53 52 51 45 38 36 34 33 33 32 30 28 24 20 18 15 14 13 13 17 26 34 38 39 44 52 58 64 73 84 90 84 74 72 75 81 86 83 75 68 55 39 31 28 24 23 25 24 19 15 15 19 22 22 21 21 21 19 18 18 19
9 9 10 11 11 11 10 9 9 10 12 13 13 23 44 60 65 68 73 69 57 49 47 47 46 44 43 40 37 35 34 36 37 36 37 37 36 34 27 20 17 16 13 13 19 27 34 37 43 50 56 60 65 78 93 94 85 81 82 86 91 88 79 70 59 45 35 30 28 26 27 26 22 19 20 22 26 28 29 29 28 28 28 29 31
13 12 13 14 15 13 10 11 11 12 14 14 18 35 55 66 65 59 54 48 42 40 44 48 49 48 46 42 41 41 41 42 43 44 44 42 42 42 39 31 23 18 17 14 13 17 24 32 40 47 54 57 58 69 90 100 98 96 94 91 91 89 83 75 67 55 41 33 30 31 32 30 29 33 31 26 27 33 37 39 40 42 43 42 41
19 19 20 20 21 18 13 12 14 14 15 19 30 49 62 60 49 39 39 42 43 45 48 50 51 52 49 43 41 42 43 43 42 43 47 48 46 43 42 39 29 20 19 17 16 18 21 30 40 45 50 55 58 68 86 99 100 99 100 99 96 91 83 75 72 67 56 43 34 34 38 39 41 46 44 38 37 40 43 46 47 48 50 48 43
19 21 24 24 22 20 15 14 16 17 19 26 41 53 51 42 37 40 48 50 48 47 48 50 50 51 51 47 43 41 42 43 42 44 52 59 59 52 45 40 35 27 21 18 19 19 19 25 35 43 46 50 56 66 79 91 98 99 99 100 100 98 90 79 72 73 72 64 51 41 41 45 48 52 52 52 54 56 54 53 51 50 49 45 41
18 21 24 22 18 16 16 16 17 21 25 29 38 41 35 37 46 51 53 51 45 43 44 47 49 51 54 52 49 47 48 50 52 52 55 60 65 63 53 43 38 31 24 20 20 20 17 20 31 41 43 43 52 64 74 84 94 98 98 97 99 100 97 89 83 82 85 84 77 64 54 51 52 53 53 52 55 58 58 56 55 53 49 45 46
20 24 23 18 15 14 15 17 20 25 29 31 34 33 33 46 55 54 52 49 45 44 44 47 50 51 52 53 51 48 48 51 54 52 51 53 60 65 60 51 43 36 28 21 20 22 20 22 33 40 37 37 47 61 72 82 93 100 100 96 97 99 100 98 96 95 97 97 95 90 81 74 70 68 68 69 69 68 64 61 58 56 54 56 58
20 21 19 15 13 14 16 21 26 31 34 35 35 34 40 51 56 56 54 49 45 47 48 50 51 49 48 49 48 45 46 49 52 53 54 54 57 65 68 62 52 41 31 22 21 22 23 29 39 38 31 34 44 55 67 78 88 97 101 96 94 95 97 99 99 100 101 96 93 93 92 92 93 92 89 87 82 76 72 68 63 61 64 66 63
18 15 15 13 13 16 19 26 32 36 37 35 33 38 48 54 54 56 55 49 47 49 49 50 51 48 45 45 44 44 45 48 53 60 66 67 65 66 70 72 64 48 33 24 21 22 25 30 34 32 27 31 42 53 65 76 82 89 97 100 98 96 97 100 100 100 95 85 80 82 82 84 91 95 91 83 72 66 67 68 67 70 71 64 57
19 17 16 16 16 18 22 31 39 42 41 38 39 47 55 58 58 58 55 51 50 51 52 53 53 50 47 46 45 45 45 48 55 66 80 86 79 72 72 75 70 54 35 25 22 23 25 25 26 30 30 32 45 56 63 70 75 79 86 91 92 92 92 90 87 84 79 72 71 76 77 78 81 83 79 72 66 65 69 71 69 70 66 55 49
19 18 17 18 20 22 29 39 46 49 49 48 50 55 59 62 65 64 59 55 54 54 55 54 52 51 52 51 49 47 47 50 58 73 91 96 86 81 81 79 73 56 35 24 23 23 22 20 22 29 32 37 51 61 63 67 73 76 76 72 65 61 59 56 53 52 53 52 53 61 71 76 79 83 82 77 75 77 79 78 73 69 64 54 46
18 17 15 18 24 32 42 48 51 54 57 57 58 60 62 65 67 66 62 57 55 56 55 55 56 57 61 65 62 54 49 50 60 79 98 100 91 89 89 82 73 55 33 23 23 22 21 20 19 23 32 45 58 66 69 69 68 68 62 51 41 34 30 28 26 26 30 32 35 48 63 69 72 82 90 88 85 85 81 80 81 80 74 61 46
23 21 17 18 26 40 53 58 59 60 62 63 65 66 65 64 64 66 64 59 56 58 59 63 69 74 78 80 74 61 50 48 58 77 93 97 93 91 89 83 71 50 31 23 23 21 19 20 21 23 34 54 68 69 67 63 58 56 50 38 30 26 22 21 21 23 26 28 31 41 52 54 56 65 74 76 77 78 75 74 75 72 64 53 43
32 28 21 19 28 44 57 63 65 63 59 58 60 61 60 61 63 66 67 62 59 61 65 72 81 87 87 80 69 57 47 44 54 70 84 90 88 87 88 81 63 41 28 24 24 23 20 22 30 32 40 64 77 68 63 64 57 49 39 29 25 24 22 24 28 32 34 33 32 34 34 34 36 41 46 49 54 58 56 54 53 49 45 42 39
41 35 27 24 33 45 56 64 66 62 56 54 54 55 55 57 60 66 69 66 61 63 69 75 83 87 79 64 54 48 44 46 55 65 75 82 83 83 81 69 49 34 29 26 25 25 23 27 38 40 45 64 77 74 75 73 55 36 28 25 26 26 25 26 29 33 35 33 30 26 22 21 22 25 28 31 34 36 36 37 40 40 39 38 35
49 44 35 31 38 48 56 62 63 58 54 53 54 54 54 55 58 64 69 68 65 67 69 72 76 74 63 50 45 46 47 50 54 58 63 69 71 70 62 48 36 30 28 28 28 28 28 33 41 43 44 53 65 74 76 60 38 29 28 26 27 27 24 24 28 32 34 32 27 22 20 20 22 23 24 26 28 30 31 33 37 38 36 34 31
55 53 44 39 44 52 57 59 58 55 52 52 53 55 57 58 59 63 70 72 73 72 68 65 65 61 54 47 45 46 47 45 43 42 42 43 45 43 38 32 29 27 27 28 30 31 34 37 42 46 45 46 52 58 54 40 31 32 30 26 27 28 26 27 31 34 32 27 23 21 21 22 22 22 24 28 31 33 32 32 34 33 31 29 27
58 60 54 47 48 55 60 59 55 52 51 54 57 60 64 67 68 73 79 82 83 79 70 62 60 59 56 48 42 41 39 33 29 27 26 25 26 27 27 27 26 27 28 31 33 34 36 39 43 46 45 43 44 43 40 35 34 32 27 25 26 29 31 32 32 31 26 22 22 23 23 22 21 22 28 32 34 33 30 28 28 27 26 26 25
60 62 56 51 53 60 62 57 53 52 53 58 64 71 74 73 73 79 86 88 86 81 72 64 60 60 57 48 40 37 32 27 25 24 23 23 25 26 28 28 28 29 32 33 35 36 37 40 46 46 43 42 42 40 37 35 32 28 26 24 27 32 33 28 25 24 23 24 27 26 24 21 19 20 25 28 28 27 25 24 25 26 27 29 30
56 55 53 56 64 65 59 54 52 53 57 65 75 81 80 74 72 79 88 92 88 82 75 68 64 62 57 49 42 37 31 28 27 25 25 27 28 29 30 30 31 32 33 34 37 39 37 39 44 44 40 38 35 31 30 30 30 30 28 25 27 31 27 23 24 27 29 30 28 22 19 20 21 21 23 23 22 22 22 24 26 29 32 35 35
50 52 57 63 66 60 54 52 51 55 65 75 79 78 74 72 76 83 90 92 87 81 77 70 66 66 60 50 44 40 35 32 31 28 28 29 29 30 31 31 31 31 31 35 41 40 36 36 39 39 36 32 27 26 28 31 34 35 30 26 27 28 26 27 30 32 31 27 21 17 18 22 23 23 22 21 21 24 27 30 35 38 40 41 40
50 57 62 62 59 55 51 51 54 64 75 76 71 68 67 71 81 86 86 85 80 78 79 74 70 71 63 49 44 43 40 37 35 32 29 27 28 29 30 30 29 29 34 42 44 38 31 29 29 28 26 24 25 28 32 35 39 39 32 29 30 30 30 31 30 27 23 18 16 19 23 24 23 21 20 23 28 32 34 36 40 45 46 46 46
56 60 60 57 55 52 50 55 67 78 80 71 64 64 64 70 81 84 82 80 76 75 78 76 74 74 65 50 45 45 43 40 37 32 27 26 26 27 27 29 29 30 38 44 40 30 25 23 20 18 18 20 23 27 29 33 42 43 36 32 33 31 28 27 23 19 17 17 20 24 24 21 20 19 21 27 31 32 34 39 45 49 48 48 49
57 58 55 53 53 50 50 62 75 81 77 68 63 64 64 71 80 81 80 82 80 75 73 72 73 74 64 50 45 46 44 40 34 29 26 25 25 26 27 29 29 29 31 32 27 21 20 19 18 18 19 21 23 25 28 33 41 43 37 32 31 28 24 22 18 16 19 21 23 22 20 18 18 19 23 25 26 31 40 47 50 49 46 45 46
53 54 53 52 51 49 54 70 81 83 78 70 65 64 66 71 78 79 81 83 79 73 69 66 69 72 61 48 46 46 42 36 31 27 26 25 26 28 28 28 27 25 24 22 20 18 18 17 18 21 23 25 28 30 32 35 38 38 34 31 28 24 20 17 16 18 22 23 21 19 18 17 18 20 20 22 30 42 51 51 48 45 41 40 42
52 52 51 50 50 52 64 79 85 82 78 72 66 63 66 74 78 79 83 83 75 71 69 66 70 74 61 47 46 45 37 32 29 27 26 27 27 27 26 25 24 22 20 19 17 16 17 19 22 26 28 31 33 34 34 35 35 33 30 27 23 19 17 16 17 19 20 20 19 20 20 20 21 21 23 32 45 52 51 47 43 41 39 38 40
52 53 51 51 56 64 74 81 79 75 74 70 66 68 75 81 81 81 87 86 77 74 72 70 75 78 63 47 44 41 34 31 30 28 27 27 26 26 25 23 21 18 16 15 15 16 21 25 29 33 36 36 36 35 35 34 31 28 26 24 20 20 21 21 23 24 23 23 24 25 25 26 25 26 34 46 53 51 47 44 42 40 39 39 40
51 53 52 54 65 74 76 74 73 76 77 74 73 74 74 72 75 81 84 79 74 74 74 75 84 84 66 47 42 38 34 32 30 28 27 27 25 25 24 20 17 15 13 14 20 27 32 36 39 42 41 39 38 38 35 29 25 26 26 22 19 20 23 26 29 28 27 29 31 31 32 32 33 37 47 53 53 49 46 44 42 40 41 41 41
52 53 53 58 68 72 70 70 76 82 82 78 77 72 62 62 75 84 77 68 69 73 74 81 91 84 61 45 41 39 35 33 30 27 27 27 26 24 20 16 13 11 12 22 36 43 44 45 48 47 44 43 41 37 30 23 21 22 21 17 15 16 18 21 25 24 22 25 28 31 35 39 42 47 54 55 53 50 47 44 42 42 41 41 42
53 54 57 61 64 65 64 68 78 84 81 78 76 69 60 62 74 79 70 64 68 72 77 88 90 74 54 45 43 39 34 31 29 28 28 27 25 20 16 13 12 13 21 36 48 51 51 53 54 52 50 47 40 31 24 20 19 18 16 14 14 13 12 14 15 15 14 17 23 31 41 48 52 55 58 57 54 51 47 45 43 42 41 41 41
53 56 60 61 64 69 71 71 77 85 88 83 77 69 62 61 65 67 64 63 68 75 82 86 78 62 52 49 43 36 32 30 29 29 29 26 22 18 15 14 14 22 38 52 58 58 59 61 61 59 55 47 36 26 22 20 17 15 13 12 11 10 9 8 8 8 10 13 22 35 48 56 59 61 61 58 55 52 48 46 44 42 41 40 39
58 63 67 67 68 75 78 74 72 80 89 88 80 71 65 64 64 63 62 65 73 79 78 73 65 59 55 48 38 32 30 30 30 30 28 24 20 19 18 21 27 41 57 67 69 68 69 70 70 65 55 42 32 25 21 17 14 11 9 8 7 6 6 7 7 8 11 18 30 47 59 64 66 65 62 59 56 52 49 46 45 43 40 39 38
68 70 72 73 72 73 72 65 60 64 73 80 79 77 77 78 73 66 65 72 78 76 69 65 62 58 51 41 33 30 30 30 30 29 26 24 24 23 26 34 49 64 74 79 80 80 82 82 76 63 48 36 28 21 16 11 8 6 5 5 5 5 5 7 9 12 17 27 43 59 68 71 70 67 63 60 56 52 50 48 46 43 40 38 37
73 71 72 74 74 69 63 60 60 63 66 72 79 85 90 90 81 69 68 75 77 72 66 62 56 49 42 36 31 30 31 31 31 30 30 29 26 24 31 48 65 75 78 77 76 80 85 83 68 50 37 27 19 12 8 5 5 5 5 5 6 6 7 9 12 17 24 36 52 65 71 72 70 66 62 59 55 52 51 49 46 44 41 38 36
72 70 71 74 74 69 64 65 70 71 70 74 82 87 88 85 76 68 68 71 70 64 57 51 45 40 37 33 32 32 32 32 34 35 35 31 24 24 40 62 72 69 64 60 60 68 75 68 51 35 24 15 8 5 5 4 4 5 4 4 6 9 11 13 16 21 28 39 52 64 68 68 66 63 60 57 54 53 51 49 47 44 41 38 36
69 69 74 78 76 72 69 72 77 78 78 81 82 79 75 70 65 62 61 59 55 50 45 41 38 36 33 32 32 32 30 31 34 35 32 26 22 31 56 74 71 57 47 44 50 60 62 49 32 19 11 6 4 4 4 4 4 5 5 5 7 10 14 17 19 22 26 34 47 57 61 61 60 59 57 56 55 54 52 49 47 44 41 37 35
74 78 83 83 78 72 71 76 82 84 82 77 71 66 61 58 55 51 47 44 43 40 37 34 32 31 31 32 31 27 25 28 29 26 22 22 29 49 73 79 63 45 36 36 43 50 45 30 16 8 4 4 5 5 5 5 6 5 5 6 7 9 13 17 19 21 25 33 42 50 54 55 56 57 57 57 56 54 51 49 46 43 39 36 32
88 91 87 80 75 73 73 73 74 73 69 64 59 55 50 45 41 38 35 34 34 33 31 31 31 32 32 29 23 19 20 25 25 21 24 37 55 73 79 68 48 36 34 36 37 35 26 14 7 4 4 5 6 6 7 7 6 6 6 7 7 8 10 14 17 20 25 33 43 50 54 56 58 59 58 57 55 52 50 46 43 39 36 33 30
93 92 84 78 77 75 68 62 60 60 58 54 49 43 37 33 32 29 27 28 30 31 31 31 30 28 24 18 14 16 19 21 24 31 47 66 75 72 60 45 34 31 32 32 29 21 12 6 5 5 5 7 7 8 9 8 8 8 7 6 7 8 9 12 16 19 23 29 38 46 53 57 58 58 56 53 50 47 44 40 37 34 31 29 27
89 91 87 82 77 69 61 57 57 55 50 43 36 31 27 25 25 24 26 29 31 32 29 24 20 18 14 10 14 21 23 24 31 48 66 73 65 50 38 31 27 26 25 22 17 10 6 5 5 6 7 9 9 10 10 10 9 9 9 8 8 8 9 11 14 16 19 24 30 37 43 48 49 48 46 44 41 39 35 33 31 29 27 26 25
91 92 85 76 68 63 60 58 53 46 38 31 26 23 22 23 25 27 28 28 27 24 20 14 12 12 11 12 19 27 31 34 45 61 69 62 46 35 30 25 21 19 18 14 9 6 5 6 6 7 9 10 10 11 11 11 11 11 10 10 9 9 9 10 12 14 17 20 24 28 33 35 36 37 36 35 33 31 30 28 27 26 25 24 23
89 83 75 69 66 63 57 49 39 31 26 22 21 23 25 27 27 25 23 20 17 14 12 12 12 13 16 22 30 38 44 50 57 64 64 52 38 30 26 21 17 15 12 8 6 6 6 7 8 9 10 11 11 12 12 12 13 13 12 12 11 10 10 10 11 12 15 17 19 23 26 28 29 29 28 28 27 26 26 25 24 22 21 18 17
81 75 70 65 57 47 37 28 23 22 22 23 26 28 26 23 20 16 14 13 12 11 12 12 12 16 22 32 40 46 48 49 50 52 51 43 33 26 21 17 13 10 7 6 6 6 6 7 9 10 10 11 12 12 12 13 14 14 14 14 13 12 12 11 10 12 12 13 15 17 18 20 22 22 22 24 24 23 23 21 17 15 13 11 10
68 60 51 41 32 25 22 22 24 25 26 27 25 21 17 15 13 12 12 12 13 14 14 13 15 24 32 37 37 35 32 32 37 42 43 37 29 22 16 13 10 7 6 6 6 6 7 9 10 11 11 11 11 12 12 13 14 14 15 16 15 15 14 13 12 11 11 11 12 13 14 15 18 19 21 22 22 20 17 14 11 9 9 9 9
40 33 26 22 22 24 25 25 26 25 23 20 16 13 12 12 12 12 13 14 15 16 15 15 19 27 31 27 21 17 20 30 40 43 38 30 23 18 13 11 8 6 5 6 6 6 8 10 11 11 12 11 12 12 13 13 14 15 15 16 16 17 16 16 14 13 12 12 11 11 12 13 15 18 20 19 17 13 10 8 9 9 9 10 10
25 25 25 26 27 26 25 25 28 27 21 14 12 12 12 12 13 14 15 15 15 16 16 16 16 17 15 12 12 17 26 35 39 34 26 22 20 17 13 10 7 5 5 6 6 7 8 10 11 12 12 12 12 12 13 13 14 15 16 16 17 17 17 17 17 16 15 13 12 11 12 12 14 17 18 15 11 9 9 8 9 10 10 10 12
27 27 24 23 24 23 20 22 26 24 17 12 12 12 13 14 15 15 15 15 15 15 15 14 11 9 7 8 12 20 27 29 26 22 20 20 19 15 11 9 7 6 6 6 6 7 9 10 11 11 11 11 12 12 13 14 14 15 16 17 17 18 18 18 18 18 17 16 15 13 12 12 14 15 14 11 8 8 9 9 10 11 11 11 12
25 22 21 29 40 39 28 19 19 17 13 12 13 14 15 16 16 15 16 16 16 14 12 10 8 8 9 11 14 17 19 20 20 20 20 19 15 12 10 8 7 5 5 6 7 8 9 9 11 11 11 11 12 12 13 14 15 16 18 19 19 20 20 19 19 19 19 19 18 15 13 13 14 13 12 10 8 9 10 11 11 12 12 12 13
20 17 18 29 39 35 21 14 15 15 13 14 17 18 16 16 17 16 15 13 11 9 8 8 8 9 11 13 15 15 15 16 18 18 16 13 10 9 9 8 6 5 5 6 7 8 9 10 10 10 10 11 12 13 15 16 17 19 20 21 21 22 22 21 21 20 19 19 20 18 15 13 13 13 11 10 8 9 11 11 12 13 13 13 14
16 15 14 17 19 16 12 14 17 17 17 22 26 24 17 13 12 11 9 8 8 7 7 7 9 10 9 9 10 11 11 12 12 11 10 8 7 8 9 8 5 5 6 6 7 8 9 9 9 10 11 13 14 16 17 18 19 21 22 23 23 24 24 24 24 23 21 21 21 21 19 16 14 13 12 10 9 10 11 12 12 13 14 14 14
Wind_Speed
20 19 19 19 19 20 21 21 21 21 19 16 14 13 12 11 11 11 13 14 15 16 17 19 21 22 22 24 25 23 22 24 25 26 27 28 29 31 33 34 34 35 35 34 34 33 32 31 31 33 34 34 33 34 35 37 39 40 39 39 39 39 40 40 40 41 41 41 41 41 40 39 38 36 36 35 35 34 34 35 35 35 36 36 37
19 18 17 17 18 19 20 19 19 18 15 12 12 13 12 11 11 12 14 15 16 17 19 19 20 20 19 19 20 21 22 24 25 27 28 29 30 32 33 34 35 35 35 35 35 34 32 32 32 33 34 35 34 32 33 35 37 39 40 40 40 40 40 40 41 42 42 43 43 43 41 40 38 37 37 36 35 34 34 35 35 36 36 36 37
15 15 15 16 17 18 18 18 16 14 11 12 12 11 11 12 12 13 14 16 17 17 17 17 17 18 18 18 20 21 23 24 26 27 28 29 31 32 34 35 35 36 36 37 36 35 34 33 34 34 34 35 34 32 30 32 35 38 39 40 39 40 41 42 43 43 43 43 43 43 42 41 41 40 39 39 38 36 34 35 36 36 37 38 40
10 12 14 16 16 16 17 16 13 11 11 12 11 10 11 12 12 13 15 16 18 18 17 17 18 19 19 20 22 23 24 25 27 29 30 30 31 32 34 34 35 36 36 37 37 37 36 35 36 36 35 34 34 31 30 32 36 39 40 40 41 41 42 43 44 44 43 43 43 44 44 44 45 44 44 44 43 41 39 39 40 41 42 44 46
11 12 14 16 16 16 16 13 10 10 11 11 10 10 10 11 12 14 15 17 17 17 17 18 19 20 21 23 24 25 27 28 30 31 32 32 32 32 33 33 33 35 36 37 39 39 39 37 37 37 36 35 34 32 30 34 40 42 42 42 42 42 42 43 45 45 45 45 45 45 46 47 47 48 48 49 49 48 47 47 48 48 49 50 52
14 13 15 16 15 15 14 11 10 10 11 10 10 11 11 12 12 13 14 16 17 17 17 19 20 21 23 24 26 27 28 29 31 32 33 34 34 34 33 32 32 33 35 38 40 42 42 41 40 39 38 37 36 34 33 34 38 42 43 44 43 42 41 42 44 45 46 48 48 48 48 49 49 50 52 53 53 52 52 53 54 55 56 57 58
14 13 15 14 13 13 12 10 10 11 11 11 11 11 11 11 12 13 15 17 18 20 20 21 22 22 24 26 28 29 30 31 32 34 36 37 37 37 36 34 33 33 34 37 40 42 43 43 42 41 40 39 38 37 36 35 36 38 40 42 44 44 43 43 43 44 46 49 51 51 52 52 52 53 55 57 58 58 58 58 57 57 59 60 59
14 13 14 13 10 11 11 10 11 12 12 12 12 11 10 11 13 15 17 18 20 21 22 23 24 24 26 28 31 32 34 34 36 37 39 40 40 40 39 37 35 34 35 37 39 42 43 43 42 42 41 40 39 38 38 36 36 37 39 40 42 43 43 42 42 43 45 47 49 51 53 54 55 56 56 58 60 62 62 61 59 58 59 59 58
14 12 12 11 9 9 10 11 12 13 13 13 13 12 11 13 15 16 17 19 20 21 22 23 24 26 28 30 33 35 37 38 39 40 41 42 42 42 41 39 37 35 35 37 40 41 42 42 40 41 40 39 39 39 37 36 36 38 40 40 40 41 41 43 44 45 45 45 45 47 48 50 52 54 55 55 55 55 55 56 56 56 57 57 58
14 12 11 11 9 7 9 11 13 14 14 14 14 12 12 14 16 17 18 19 19 20 22 24 26 28 30 32 35 37 39 41 42 43 44 45 45 45 44 42 39 36 35 37 40 41 40 40 39 40 39 38 38 38 37 35 35 36 39 41 41 41 42 44 46 45 44 44 44 44 45 45 47 49 50 49 48 48 49 51 52 54 56 57 57
13 13 11 10 8 8 9 12 13 14 14 13 12 12 13 16 19 20 21 21 21 23 25 28 30 32 34 35 37 40 41 43 44 44 45 47 48 48 47 44 40 37 36 37 40 40 39 39 39 38 39 39 38 37 36 35 35 34 35 38 40 40 41 42 42 42 42 43 43 44 45 45 45 46 47 47 47 48 49 51 53 54 56 57 57
13 14 12 9 9 9 10 11 12 13 13 12 13 14 17 20 21 23 24 24 25 27 29 31 33 35 37 38 40 43 44 45 46 45 46 48 49 48 47 43 38 36 36 37 39 38 38 39 38 38 39 39 38 37 35 34 33 33 34 36 39 41 42 43 43 44 44 45 45 45 46 46 45 46 47 47 48 49 51 53 54 55 57 58 58
15 15 13 10 8 7 8 10 12 14 16 17 18 19 21 23 24 26 28 28 29 30 32 34 36 38 40 42 44 46 47 48 48 47 47 48 48 47 44 40 36 35 35 36 38 38 38 39 37 37 39 40 38 36 34 32 31 33 37 40 43 46 47 47 47 47 47 48 47 47 48 48 47 47 49 50 51 52 53 55 56 57 58 58 58
16 16 16 13 9 7 8 12 15 17 19 20 21 23 25 26 28 30 31 32 33 33 35 37 39 42 44 45 47 49 50 50 49 49 48 48 46 44 40 37 36 35 34 35 37 38 39 38 37 37 39 39 36 33 33 34 35 38 42 44 47 49 50 49 49 48 48 48 48 48 49 50 50 50 51 53 53 55 56 57 57 57 57 57 57
18 17 18 16 11 9 12 17 19 20 22 22 23 25 27 29 31 33 34 35 36 36 37 39 42 45 46 48 50 51 51 51 50 49 48 45 43 41 39 37 34 33 33 34 37 38 38 37 36 37 38 36 33 33 36 37 39 42 45 47 48 49 49 50 50 49 49 48 48 49 50 51 51 52 53 54 55 55 56 56 56 56 56 56 54
22 20 20 18 14 13 17 21 22 23 24 25 26 28 29 31 33 35 37 38 38 38 39 41 43 45 47 49 51 51 50 49 47 46 45 42 40 39 37 34 31 31 32 35 36 37 36 36 36 36 36 35 35 36 37 39 43 46 47 48 48 49 50 51 51 51 50 50 50 50 51 51 52 52 53 54 55 56 56 56 56 56 56 54 52
25 23 21 20 18 18 22 24 25 26 26 28 30 31 33 33 34 36 38 39 40 39 40 41 43 45 47 49 50 49 48 45 42 39 37 35 34 33 31 29 29 31 33 35 35 36 36 36 36 36 36 37 38 38 38 41 47 48 47 47 48 49 52 53 53 52 52 51 51 51 51 51 52 53 54 55 56 56 56 55 55 55 54 53 51
27 25 24 22 21 22 26 28 28 28 30 31 33 34 35 35 36 38 40 41 42 41 40 41 42 44 46 47 46 45 42 39 35 32 30 29 28 28 27 28 30 32 34 34 35 36 37 37 37 37 38 39 40 40 41 44 47 47 46 48 49 51 53 54 54 53 53 53 52 52 52 52 53 54 54 54 55 55 55 54 53 53 52 51 50
28 28 27 24 23 26 30 31 30 31 33 34 35 35 35 35 37 39 42 43 43 42 41 41 43 44 46 44 41 39 37 34 32 31 30 29 28 28 28 30 32 33 34 35 36 37 38 38 37 38 39 40 41 42 44 45 47 47 48 49 51 52 53 54 54 53 53 53 52 52 53 54 54 54 52 51 51 51 52 51 50 50 49 47 46
30 30 28 25 26 29 32 33 33 34 34 35 36 36 35 37 40 42 46 48 43 39 39 42 43 45 46 43 39 37 36 35 34 33 32 31 30 30 30 32 33 34 35 36 37 37 37 37 38 39 41 41 42 43 45 46 48 48 49 50 51 52 53 53 52 52 51 52 52 52 53 53 53 52 50 49 49 49 49 48 46 46 44 42 40
32 30 28 28 30 32 34 35 35 36 36 37 36 36 37 41 44 46 49 48 41 36 39 42 43 45 45 43 40 39 38 37 36 36 34 33 32 32 33 34 35 35 36 38 38 37 37 38 39 41 42 42 44 45 46 48 49 50 50 51 51 51 51 51 51 51 51 51 52 52 53 51 49 48 47 47 48 47 47 45 44 42 40 38 37
31 29 30 32 34 34 36 37 38 39 40 39 37 37 39 43 45 45 46 43 38 37 40 42 43 45 45 43 41 40 40 40 39 38 37 35 34 34 35 35 36 37 39 39 38 38 38 39 40 42 43 44 46 47 48 49 50 51 50 49 49 49 50 50 50 51 52 52 52 51 48 46 45 45 45 46 46 45 43 42 40 39 39 38 38
31 32 35 35 35 37 38 38 40 42 41 39 37 39 40 41 42 43 43 40 38 39 42 43 44 46 45 43 41 41 41 42 41 40 39 37 36 37 37 37 39 40 40 39 38 39 41 41 42 43 44 45 47 48 49 50 51 50 48 47 47 48 50 50 51 52 52 50 48 46 44 43 43 43 44 44 43 41 40 40 39 38 37 37 37
34 36 38 37 38 40 39 39 42 42 39 37 38 40 41 40 41 42 41 40 40 41 43 44 46 47 45 43 41 42 43 43 43 42 41 39 39 39 39 39 40 40 40 39 41 43 44 44 45 46 46 47 48 49 50 50 50 48 47 47 47 49 51 52 52 51 48 46 43 42 42 42 42 42 43 42 41 40 39 38 37 36 36 35 36
39 39 39 39 41 42 41 42 45 42 37 36 38 40 41 42 42 42 43 43 43 44 45 46 47 47 45 43 41 43 44 44 44 43 42 41 41 41 40 40 40 41 42 43 44 46 47 47 48 48 48 49 50 50 50 49 48 47 47 48 49 51 52 51 48 46 43 42 41 41 41 41 41 42 42 41 39 38 36 35 34 34 34 33 33
41 41 41 41 43 43 43 46 46 41 36 36 38 40 43 44 43 43 45 46 47 48 48 48 47 47 45 43 42 43 45 45 45 44 43 43 42 41 41 41 42 43 45 46 47 48 49 49 49 49 49 50 49 49 48 47 47 48 49 50 50 50 49 46 44 41 40 40 41 40 40 40 41 41 40 38 35 34 33 32 32 31 31 31 31
42 42 43 44 44 44 45 47 46 41 37 37 38 42 46 46 45 46 47 49 50 51 51 50 49 47 46 44 43 43 44 45 45 44 44 43 42 41 42 43 44 45 46 47 48 50 50 51 50 49 48 47 46 45 45 46 48 50 51 50 48 46 44 43 41 40 39 39 39 39 39 40 40 40 37 34 32 31 31 30 30 30 30 30 30
43 43 45 44 44 45 47 48 46 42 39 39 40 44 47 47 46 48 49 51 53 53 53 52 50 48 47 45 44 44 44 45 45 45 44 43 43 43 43 44 45 46 47 48 50 51 51 51 49 46 44 44 44 44 46 49 50 51 49 45 43 41 41 40 39 38 38 38 38 38 38 39 38 37 34 31 30 29 30 29 29 29 29 30 29
44 45 46 45 45 47 48 48 46 43 41 41 42 46 48 48 48 49 51 53 55 54 54 53 52 49 47 45 44 44 44 45 45 46 45 44 43 43 44 44 46 47 48 50 50 50 50 48 45 43 43 44 45 47 48 49 48 46 43 40 39 38 38 36 36 36 37 37 37 38 38 37 36 34 31 30 29 29 29 28 28 28 29 29 28
46 47 47 47 47 49 49 50 48 45 43 43 43 46 48 49 49 51 53 55 56 56 55 54 52 48 45 44 44 45 45 46 46 45 45 44 43 43 44 46 47 48 49 50 49 48 46 44 42 42 44 46 48 49 48 46 44 42 40 39 39 39 38 38 38 39 39 38 38 38 37 36 34 32 30 28 28 28 28 28 28 28 28 28 28
47 48 48 48 49 50 51 53 52 48 45 44 44 47 49 50 51 53 55 56 56 56 55 52 48 45 44 44 45 46 46 46 46 45 45 44 44 44 45 46 48 49 49 48 47 45 43 42 42 43 46 48 50 48 45 42 41 41 40 40 41 41 40 40 41 41 40 39 38 37 36 34 32 30 29 28 27 27 27 27 27 27 27 28 28
49 49 48 49 51 51 52 55 56 54 49 45 45 48 51 51 52 54 56 56 56 55 51 47 45 44 45 46 46 46 46 46 46 46 46 45 44 45 46 47 49 49 48 46 45 44 42 42 43 45 47 49 48 43 40 39 40 40 40 40 41 41 41 40 41 40 39 38 36 35 34 32 30 28 28 27 27 27 27 27 27 27 27 28 28
48 48 49 51 53 52 51 52 54 54 51 48 46 47 49 51 53 55 56 56 54 50 47 45 45 45 46 46 46 46 47 47 47 47 46 45 44 45 46 48 48 47 46 45 44 43 43 43 45 47 47 46 44 40 39 39 39 39 40 40 40 40 40 39 39 38 37 35 34 32 31 29 28 27 27 27 27 26 26 26 26 26 27 27 28
48 48 49 49 50 48 47 47 48 46 44 44 45 46 49 53 55 56 55 53 50 48 46 46 46 46 46 46 46 47 48 48 48 47 45 44 44 45 46 47 47 45 44 43 43 43 43 44 45 45 44 42 40 39 39 38 37 37 38 38 39 39 38 37 37 35 34 32 31 29 28 28 27 27 26 26 26 25 25 25 25 26 26 27 27
47 46 47 48 47 46 45 46 46 44 42 44 46 48 51 54 56 55 53 50 48 46 46 46 46 46 46 47 47 48 49 48 47 45 43 43 44 45 45 45 44 42 41 40 41 42 43 44 43 41 39 38 37 37 37 36 36 36 37 37 37 37 37 35 34 32 31 30 28 27 27 26 26 26 26 26 25 25 25 25 25 25 26 27 27
46 46 47 48 47 46 46 47 47 47 47 48 49 51 53 54 53 52 49 47 45 45 45 46 46 46 46 47 48 48 47 46 44 43 43 44 44 44 44 42 39 38 38 38 40 41 42 41 39 37 35 34 34 34 34 34 34 34 35 35 35 34 34 33 31 29 28 27 26 26 26 26 26 25 25 25 24 24 25 25 25 26 26 27 28
46 47 47 47 46 46 47 48 49 49 50 51 52 53 53 51 49 47 46 44 44 44 45 46 46 46 46 47 46 46 45 44 43 43 44 45 44 43 41 38 36 36 36 38 39 40 38 35 33 32 31 30 30 31 31 31 31 32 33 33 33 32 31 30 29 28 26 25 24 24 25 25 25 25 24 24 24 24 25 25 26 26 27 27 28
45 46 46 46 46 47 49 50 50 51 52 52 51 50 49 47 46 46 45 43 43 44 44 44 44 44 45 44 44 44 44 44 44 45 45 44 43 41 39 37 36 36 36 36 37 36 33 31 30 29 28 27 28 28 28 28 29 30 31 31 31 30 28 28 27 27 25 24 24 24 24 24 24 24 24 24 24 25 26 26 27 27 28 28 29
45 45 45 45 47 50 51 51 51 51 51 50 48 47 46 46 45 44 43 41 42 43 42 42 42 42 42 42 43 44 44 43 44 45 44 41 40 38 37 36 35 36 36 35 33 32 30 29 28 26 25 25 26 26 27 27 28 28 29 29 29 29 28 27 27 26 25 24 24 24 24 24 24 24 24 24 25 25 26 27 28 28 29 29 29
44 45 46 48 49 51 52 52 51 50 49 48 47 46 45 43 42 41 40 40 40 41 41 41 41 41 41 42 44 43 42 42 43 41 39 38 37 36 35 34 33 33 33 32 30 28 27 26 24 23 23 24 24 24 25 26 27 27 28 28 29 29 28 28 27 26 25 25 24 24 24 24 24 24 25 25 25 26 27 27 28 29 29 29 29
45 46 48 49 50 51 51 50 49 49 49 48 46 44 42 40 40 40 40 39 40 40 40 40 41 41 41 42 42 41 40 40 39 38 37 36 35 34 33 32 31 30 30 28 26 25 24 22 21 21 22 22 22 23 23 24 26 27 27 28 28 28 28 27 27 26 25 25 24 24 24 24 25 25 25 25 26 26 27 28 28 29 29 30 30
47 48 49 49 49 49 48 48 48 49 48 46 44 42 41 40 40 40 40 39 39 39 39 40 41 40 40 40 39 38 38 37 37 36 36 35 34 32 31 30 29 28 27 26 24 22 21 20 20 20 20 20 21 21 21 22 24 25 25 26 26 27 27 26 26 26 26 25 25 24 24 24 24 25 25 25 26 27 27 28 29 29 30 31 32
46 46 47 47 48 48 48 48 48 47 45 43 42 41 40 40 39 39 39 39 39 39 39 39 40 39 38 38 37 36 36 36 36 36 35 34 32 31 30 28 27 26 25 23 21 19 19 19 19 20 20 19 20 21 21 21 22 23 24 25 25 26 26 26 26 26 26 26 26 26 25 25 25 25 26 26 27 27 28 29 30 30 31 31 31
44 45 46 47 47 47 47 46 45 43 42 41 41 40 39 38 38 38 38 39 39 40 39 38 38 37 36 36 35 35 35 36 36 35 34 33 31 29 27 26 24 23 22 21 19 18 19 19 19 19 20 20 20 21 22 22 22 23 23 24 24 25 25 25 25 25 26 26 27 27 27 26 26 26 26 26 27 28 28 29 29 29 29 28 28
44 45 45 45 45 44 43 42 42 41 41 40 39 38 38 38 38 38 38 38 38 38 38 37 35 35 35 35 35 36 36 36 35 34 33 32 30 27 25 24 23 22 21 19 18 18 18 19 19 19 20 21 21 22 22 23 23 23 23 24 24 24 24 24 24 24 25 26 26 27 27 27 27 26 26 27 27 27 27 27 26 25 25 24 24
42 42 42 42 42 42 41 41 41 41 40 38 38 38 38 38 38 38 37 37 36 36 36 35 34 34 35 35 36 36 36 34 33 33 32 31 28 25 23 23 22 21 20 19 18 18 18 19 19 19 20 21 22 22 23 23 24 24 24 24 24 24 24 25 25 25 25 26 26 27 27 27 26 26 26 27 26 25 25 24 23 22 22 22 22
40 41 40 40 41 42 41 41 40 39 38 37 37 37 37 37 37 36 36 35 35 35 35 34 33 34 35 35 35 35 34 33 32 32 31 29 26 24 23 22 22 21 20 20 19 18 18 19 20 20 20 21 21 22 23 23 24 25 26 26 25 26 26 26 25 25 26 26 26 27 27 27 26 26 26 25 24 22 22 21 21 21 21 21 22
39 40 40 40 41 41 41 40 39 38 38 37 37 37 36 36 36 35 35 35 34 34 34 33 33 34 35 35 34 33 32 31 31 30 28 27 26 24 23 22 21 21 20 20 20 20 20 20 20 21 22 22 22 22 23 24 24 25 26 26 26 26 27 27 27 26 26 26 27 27 27 26 26 26 25 23 21 20 20 20 20 20 20 21 21
39 40 40 39 38 38 38 38 39 39 38 37 36 36 36 36 35 35 34 34 33 33 33 34 34 34 34 34 33 32 31 30 29 29 28 27 26 24 22 21 21 21 20 20 20 21 21 22 22 23 23 23 23 23 24 25 25 26 26 26 26 27 27 27 27 27 27 26 27 27 27 26 26 26 24 22 19 19 18 19 19 20 20 20 21
40 40 39 39 38 39 39 39 38 38 37 36 35 36 36 35 34 34 33 33 33 34 34 34 34 34 34 33 32 31 30 29 28 29 28 28 26 24 22 21 21 21 21 21 21 21 22 23 24 24 24 24 24 24 25 26 26 26 26 26 27 27 27 27 27 27 27 27 27 26 27 26 26 25 23 21 19 18 18 18 19 20 20 20 21
39 39 39 40 41 41 40 39 37 36 35 33 33 34 35 33 33 33 34 34 34 35 35 35 34 34 34 33 32 30 29 29 28 28 27 26 25 23 21 21 21 21 21 22 22 22 23 24 25 25 26 25 25 25 26 26 26 26 26 26 26 26 27 27 27 27 27 27 27 27 26 26 26 25 23 21 19 18 18 18 18 19 20 21 21
Wind_Direction
261 255 250 246 248 251 255 261 265 269 273 278 284 289 290 294 299 300 303 309 316 320 323 325 325 326 326 327 332 339 340 339 338 336 335 332 329 327 326 327 329 330 329 326 322 317 314 312 310 307 303 299 294 289 284 281 279 280 281 284 285 286 286 285 285 283 282 282 282 282 282 282 281 278 278 280 282 282 278 275 276 278 279 281 283
263 259 256 254 254 257 261 265 267 271 278 285 290 291 291 292 295 297 304 315 325 327 328 331 331 333 335 336 341 345 342 340 337 334 332 330 328 326 325 325 326 326 326 325 322 319 315 313 311 310 307 301 296 291 286 282 280 280 280 281 283 284 284 283 282 280 280 280 280 280 280 281 279 276 275 275 276 277 277 276 276 278 280 283 286
268 265 264 263 262 263 267 267 269 278 290 293 293 293 293 292 297 304 311 319 327 330 333 338 338 338 338 338 339 340 339 338 337 335 333 330 327 324 323 323 323 323 323 322 321 319 317 314 312 312 310 304 298 293 289 286 282 281 280 280 280 282 282 282 282 280 279 278 278 278 278 278 277 274 273 272 271 272 273 274 276 278 280 282 286
266 268 269 267 265 267 270 271 279 294 301 299 295 288 286 292 303 314 322 327 331 334 337 339 337 335 332 331 330 330 330 330 331 332 332 330 327 323 321 320 320 320 320 319 318 316 315 313 312 312 312 308 301 295 294 293 288 283 281 280 279 280 281 281 281 281 280 279 279 278 277 275 274 273 272 271 271 272 273 273 275 278 281 283 286
255 263 269 270 271 272 273 280 295 304 304 302 290 277 281 298 313 324 330 332 334 335 335 333 331 331 328 325 323 322 322 323 323 324 325 325 324 322 319 318 317 317 317 316 315 314 314 313 311 312 313 311 306 299 294 291 288 285 283 281 279 278 279 280 280 281 281 280 278 276 275 274 273 273 273 272 272 273 274 276 277 280 283 285 288
254 256 262 268 273 274 278 292 303 302 301 296 280 278 292 312 324 333 336 333 331 329 325 322 321 321 320 319 317 317 317 317 316 317 318 319 319 318 318 317 316 315 315 315 315 314 314 313 313 313 314 313 310 304 296 288 285 284 284 284 282 279 278 278 279 280 281 280 278 276 275 275 274 274 274 274 274 275 276 277 279 282 284 287 288
254 251 259 266 273 277 286 299 300 295 291 284 279 285 302 322 332 334 332 328 324 321 319 317 315 315 315 314 314 314 314 315 314 315 316 316 316 316 316 316 315 314 314 314 313 311 311 312 312 312 313 315 315 311 303 293 286 283 283 283 282 280 279 278 278 280 281 281 281 280 279 278 277 276 275 275 275 276 277 278 280 283 285 286 286
254 249 258 267 275 280 289 295 292 289 285 283 286 290 305 324 329 328 326 323 321 318 316 315 313 312 311 311 311 312 313 314 315 314 314 313 313 313 313 313 313 312 311 311 309 307 307 309 310 310 313 317 318 314 307 300 292 285 283 281 280 279 280 278 278 282 284 285 285 283 281 280 279 278 277 277 278 278 278 279 281 283 284 285 287
254 250 259 270 277 281 288 293 292 289 287 287 289 293 306 319 322 324 323 321 320 319 317 315 313 312 311 311 311 311 312 312 312 311 310 310 310 310 309 308 308 307 307 307 306 305 306 307 308 309 312 316 317 314 311 306 298 290 287 285 283 282 281 279 280 285 287 288 288 286 284 283 281 280 280 282 283 281 279 279 280 281 283 286 289
252 254 262 272 280 285 289 294 294 290 288 287 288 295 305 311 314 318 320 321 321 320 318 317 315 315 316 316 315 314 313 313 311 310 309 308 308 308 307 305 303 303 305 304 303 304 304 304 306 308 310 313 313 312 311 309 305 298 294 293 292 289 286 284 284 286 288 289 289 288 288 286 283 281 281 282 282 282 280 279 280 281 284 287 290
251 257 264 272 284 294 294 293 292 290 289 289 289 295 303 308 310 312 314 316 318 317 317 316 315 315 317 317 317 316 315 314 313 312 311 309 307 307 307 304 300 301 302 301 301 302 302 303 304 306 307 308 308 309 308 307 307 305 301 298 297 295 292 290 290 290 291 292 292 291 290 288 285 282 280 280 280 281 282 282 283 285 287 289 291
254 260 267 276 289 296 293 291 292 295 297 296 294 296 301 305 307 307 309 311 313 314 314 312 312 312 313 315 316 317 316 315 313 312 311 309 306 305 305 302 299 299 300 299 299 300 301 302 304 305 305 304 305 306 305 305 306 306 304 302 301 300 298 297 297 296 296 296 295 294 292 291 288 285 282 282 283 284 285 285 287 289 291 292 292
260 265 270 277 284 286 288 292 296 301 303 299 298 299 301 303 304 304 305 307 309 310 309 310 311 311 312 313 315 316 316 314 311 309 307 306 304 303 302 301 298 298 298 297 298 299 300 302 303 304 302 301 303 304 303 303 305 305 304 304 303 302 301 300 299 298 298 297 296 295 294 293 291 289 288 287 287 287 287 288 290 292 293 293 294
266 269 271 273 267 264 288 302 303 304 305 302 301 301 300 299 299 300 301 303 305 307 308 309 311 310 310 311 312 314 315 313 310 307 304 303 302 299 299 299 298 297 296 296 297 299 300 302 302 303 302 301 300 300 300 300 302 303 303 303 303 302 301 299 297 296 295 294 294 294 294 294 293 293 292 291 290 290 290 290 292 294 294 295 296
268 267 268 269 261 261 290 303 304 304 305 305 304 303 301 300 299 298 300 302 304 306 307 308 308 308 309 311 311 312 312 311 309 306 303 302 299 296 297 299 298 295 294 295 297 298 300 301 300 302 304 301 294 295 298 300 301 302 302 302 302 301 299 297 295 294 293 293 293 293 293 293 294 293 292 292 291 291 291 292 293 294 294 295 297
266 266 268 272 270 276 291 298 299 299 301 303 305 304 303 303 302 299 298 299 301 303 304 305 306 308 309 311 312 311 310 309 307 305 302 300 297 296 298 299 297 295 294 295 297 297 298 298 297 300 304 301 293 292 296 298 299 300 300 301 301 299 297 296 295 295 295 295 295 295 294 294 293 292 292 292 292 292 291 292 293 293 294 296 299
265 266 270 274 279 285 291 292 293 295 298 301 303 302 301 302 300 298 296 296 299 301 302 303 305 308 310 312 312 310 308 307 306 305 304 302 300 300 300 299 297 295 295 295 296 297 297 297 297 299 301 300 294 291 291 294 296 297 299 299 298 296 296 296 296 296 296 297 296 296 295 295 295 294 294 294 294 293 293 294 295 296 298 299 300
264 268 271 275 281 287 288 288 291 294 297 300 300 298 298 298 297 297 295 295 297 300 300 301 303 306 311 313 312 309 307 306 307 308 309 309 308 306 304 301 298 296 296 296 297 298 298 299 299 299 299 297 293 291 292 294 295 296 298 298 295 294 295 295 295 295 296 296 296 296 296 297 297 297 297 296 296 296 296 297 298 299 300 301 302
263 266 269 273 280 283 285 286 289 292 294 295 294 294 295 295 295 296 293 292 296 298 297 297 300 305 310 313 312 309 307 307 309 311 312 312 311 308 304 301 299 298 298 299 299 299 300 301 300 298 297 297 295 294 294 294 294 296 297 295 293 292 293 294 294 294 295 296 296 296 297 297 297 298 298 299 299 299 300 301 302 302 303 303 303
258 262 267 273 277 278 280 283 285 287 288 289 289 290 291 293 296 296 291 288 291 295 295 295 299 303 308 313 313 309 307 308 310 311 311 311 310 308 304 301 301 302 301 301 301 301 301 301 298 297 297 297 296 295 294 294 294 295 294 293 292 292 293 293 293 294 295 296 297 297 297 297 297 297 298 300 301 303 304 305 305 304 303 302 300
255 260 267 270 271 272 275 279 282 283 283 283 284 287 290 294 296 297 294 292 293 296 296 295 298 303 308 311 311 308 307 309 310 310 310 310 308 306 304 303 304 304 304 303 302 302 302 301 298 297 298 298 297 297 296 295 294 292 292 292 292 292 292 293 294 295 296 297 298 299 299 298 298 299 300 302 304 305 307 307 306 305 303 301 297
254 260 263 265 267 270 274 278 281 280 279 278 282 289 294 296 297 297 297 299 300 298 297 297 300 304 308 310 308 307 308 309 309 309 308 307 306 305 305 305 306 307 306 304 303 303 304 301 298 297 297 298 298 297 295 293 291 290 291 291 291 292 293 295 296 297 298 299 300 299 299 299 300 302 304 306 307 308 309 308 306 304 301 298 295
254 257 260 263 267 271 274 277 278 276 276 279 287 293 296 296 296 297 297 299 300 299 298 299 300 303 306 307 307 306 306 306 306 306 306 305 305 306 307 308 308 308 306 303 302 303 303 301 300 300 300 299 298 295 292 290 290 291 292 293 293 295 296 297 297 298 300 300 300 300 300 301 303 305 307 308 309 310 309 307 304 300 297 295 293
253 255 259 263 267 270 273 273 271 270 274 282 290 293 294 293 294 295 296 298 298 298 297 298 298 300 303 304 305 305 305 304 304 304 303 304 305 307 308 308 308 307 305 303 303 304 304 304 304 305 303 301 297 294 292 291 292 294 296 296 297 297 297 298 299 300 300 300 300 300 302 303 305 307 307 308 309 309 307 304 301 298 295 294 293
252 255 259 263 265 268 270 269 266 268 276 284 288 290 291 290 290 292 294 296 296 295 296 296 297 298 300 302 303 303 303 303 302 302 302 304 306 307 308 308 308 307 306 305 305 306 306 306 306 305 303 301 298 296 295 294 295 296 298 299 299 299 298 299 300 301 301 301 301 302 303 304 306 306 306 307 308 308 305 302 299 297 296 295 296
253 256 259 261 263 266 267 265 265 269 276 282 287 288 287 287 288 290 292 294 295 296 297 298 297 297 298 300 301 302 302 301 301 301 303 305 306 307 308 308 308 308 308 307 306 306 306 306 306 305 303 301 299 298 297 297 297 298 299 300 300 299 299 300 301 301 301 301 301 302 303 304 305 305 306 308 307 306 303 300 298 297 297 297 299
252 255 257 260 262 264 264 263 266 270 275 280 285 285 284 285 288 290 291 292 295 296 297 297 297 297 298 299 300 301 301 301 302 303 304 306 307 308 308 308 308 308 308 307 306 306 306 306 305 304 303 301 299 299 299 299 300 300 300 301 302 302 302 302 303 303 302 301 302 303 304 304 305 306 307 307 306 303 301 299 297 297 298 298 301
252 254 257 260 261 261 261 264 267 270 274 278 281 281 282 284 286 287 288 290 293 295 295 295 296 296 297 298 299 300 301 303 304 305 305 307 308 308 308 308 307 307 307 306 306 306 306 306 305 303 302 301 301 302 302 302 302 302 302 303 304 304 304 304 303 303 302 302 303 304 304 304 305 306 306 305 303 301 299 298 297 298 298 300 303
251 254 256 258 258 259 261 264 266 268 271 274 276 278 280 283 285 286 286 288 291 293 293 294 295 295 296 298 300 301 302 304 305 305 305 306 307 307 307 307 306 306 306 306 306 306 306 306 305 304 303 303 303 303 303 302 302 301 301 302 302 301 302 302 302 301 302 303 304 304 304 305 305 305 304 303 301 300 299 298 299 299 300 302 305
251 253 254 255 256 259 261 263 264 265 266 268 271 274 278 282 283 283 285 288 291 292 293 294 295 295 296 298 300 301 303 304 304 304 305 306 306 306 306 305 305 305 305 306 307 308 307 306 304 304 303 302 302 303 303 303 302 301 301 302 302 301 302 303 303 302 302 303 303 304 304 304 304 303 302 301 300 299 299 299 300 300 302 304 307
251 252 253 254 256 259 262 263 264 264 264 264 268 272 276 278 280 282 285 289 291 292 293 294 294 296 298 299 300 302 303 303 303 303 304 304 305 305 304 304 304 305 306 308 309 308 306 304 302 301 301 301 303 305 306 305 304 304 305 306 305 305 305 305 304 303 303 303 303 303 303 304 304 302 301 300 300 299 300 300 301 301 303 305 307
251 253 254 254 255 257 259 262 265 266 265 264 267 270 273 276 280 283 286 288 290 291 293 294 295 297 298 299 301 302 303 303 302 303 303 303 303 303 303 304 305 306 307 309 309 306 303 302 300 300 301 303 306 308 307 306 306 307 307 307 307 306 305 304 304 304 304 303 303 303 303 303 302 301 300 300 300 299 300 301 301 302 304 306 306
250 251 253 255 259 262 265 267 271 272 269 266 266 270 273 278 281 284 286 289 290 291 293 295 297 298 298 299 301 301 301 302 302 302 302 302 302 303 304 305 305 306 307 307 305 303 301 300 300 301 304 307 308 308 306 306 307 308 308 308 308 307 307 307 306 306 306 305 304 304 303 302 301 300 300 299 299 299 299 300 300 302 303 304 305
248 250 253 258 264 269 271 272 274 275 272 269 271 274 278 281 283 284 287 289 290 291 294 296 297 297 298 299 300 300 301 301 301 300 300 302 303 305 305 305 305 305 305 304 302 301 300 300 302 304 307 308 308 307 307 308 311 311 312 311 310 310 310 309 308 308 307 306 305 304 302 300 299 299 299 299 299 298 299 299 300 301 302 303 305
250 254 259 264 267 269 269 271 273 274 273 274 276 278 280 282 284 286 289 290 291 293 295 296 296 297 298 298 298 299 300 300 299 300 301 302 303 304 304 303 304 305 304 303 302 301 301 303 305 307 308 308 309 309 310 314 316 316 315 314 313 313 312 310 309 309 308 307 305 304 302 300 299 299 298 298 298 298 299 300 300 301 302 303 305
253 258 261 263 264 265 268 271 274 275 275 275 277 278 280 283 287 289 291 292 293 295 296 296 297 298 298 297 297 298 298 298 299 300 301 302 303 304 304 304 305 305 305 304 303 303 304 306 307 308 308 309 310 311 315 318 319 317 316 316 316 314 312 312 311 310 309 307 306 304 302 301 299 299 298 298 298 299 299 300 301 301 302 303 305
255 259 260 260 262 264 268 271 274 275 275 275 277 280 283 287 290 291 293 294 295 295 295 296 297 297 297 296 297 297 297 298 299 300 301 302 304 304 304 304 305 306 305 303 303 303 306 307 307 307 308 309 311 315 318 320 319 318 318 319 319 317 315 314 313 312 311 309 308 306 304 303 302 301 300 300 300 300 301 301 302 303 303 304 305
255 256 257 258 262 266 269 271 272 272 274 277 281 284 287 290 292 293 294 296 295 294 295 296 296 295 295 294 295 296 297 298 299 300 302 304 304 304 304 304 305 305 303 301 300 302 304 305 305 306 308 311 313 317 319 321 321 321 321 322 322 321 319 317 316 315 315 314 313 310 308 306 304 303 302 302 302 301 301 302 303 303 304 305 306
254 255 256 259 263 266 268 269 271 273 277 282 285 288 290 292 293 293 294 293 292 292 293 294 292 291 292 293 294 296 297 299 300 301 303 303 303 303 304 305 305 303 299 298 298 300 302 304 305 306 308 310 314 318 321 323 325 326 326 325 325 325 324 324 323 321 320 318 315 313 311 309 307 305 304 303 302 302 302 302 303 303 304 305 306
253 253 255 259 263 265 267 269 273 277 281 284 287 289 290 291 291 291 290 290 289 289 290 289 289 290 292 294 296 297 298 298 300 301 302 303 303 304 304 304 301 297 294 295 299 302 303 303 303 304 307 313 318 322 324 327 329 330 331 330 331 330 330 329 328 325 323 320 317 314 312 310 308 307 305 304 303 303 303 304 304 305 305 306 307
250 252 256 260 263 266 268 271 276 279 282 285 287 288 288 288 288 288 288 287 287 287 288 289 290 292 294 295 296 297 297 298 299 300 301 303 303 303 302 300 296 292 292 295 298 300 299 299 300 304 310 317 321 324 327 329 331 333 334 334 334 333 332 332 330 328 326 323 320 317 314 312 310 309 308 307 306 306 306 306 307 307 307 307 307
251 254 258 260 263 266 271 275 278 280 282 284 285 285 285 285 286 286 286 286 286 287 289 291 292 293 294 294 294 295 296 297 298 299 301 302 301 300 299 297 293 291 292 293 294 294 293 296 301 307 313 318 320 324 328 331 332 333 335 335 335 335 335 334 332 330 327 325 322 319 317 315 313 312 311 311 310 310 310 310 310 309 309 308 307
254 256 259 262 265 269 273 276 277 279 281 281 281 281 282 283 283 284 285 286 287 288 290 291 292 292 293 293 293 294 295 295 296 299 300 300 299 298 296 294 292 290 289 289 289 289 292 297 303 308 313 317 321 324 328 330 331 332 333 334 335 336 337 336 334 331 327 325 322 320 318 316 315 314 313 313 313 313 313 312 312 311 310 308 307
256 259 262 265 268 271 273 274 275 277 277 277 278 279 280 281 282 283 285 287 288 289 289 290 290 290 290 291 292 292 293 294 297 298 299 298 297 295 293 291 289 285 283 284 287 289 294 299 304 309 313 318 321 323 325 327 328 328 329 331 333 335 336 336 334 332 330 327 324 321 319 318 317 316 316 317 316 316 316 315 314 313 312 311 310
261 263 266 268 269 271 271 272 273 273 274 275 277 278 279 280 282 283 284 285 286 287 287 288 288 287 288 289 290 292 293 295 296 296 296 297 297 295 293 290 286 282 281 283 287 291 296 301 305 309 313 317 320 322 324 325 325 325 326 327 329 330 332 333 333 333 332 330 328 325 323 321 321 320 320 321 320 319 319 318 318 318 318 318 318
265 266 267 268 269 269 270 271 271 272 273 274 275 276 277 279 280 281 282 283 284 283 284 285 285 285 286 289 291 292 294 294 294 294 295 296 296 295 291 286 283 281 281 284 288 292 296 299 303 307 311 314 318 321 322 323 323 323 323 324 325 326 327 328 329 331 332 332 331 329 328 326 325 324 324 324 324 323 323 324 325 326 327 328 327
266 267 267 268 268 269 269 270 270 271 272 273 274 276 277 278 278 279 280 281 281 281 282 283 285 285 287 289 292 293 293 293 292 293 295 295 295 293 287 281 279 280 281 284 289 293 295 297 300 304 307 311 313 315 317 319 319 319 320 321 322 322 322 323 325 328 329 330 331 331 331 330 329 327 326 326 327 328 329 331 334 336 336 336 335
266 267 267 268 268 268 268 269 271 272 273 274 275 275 276 276 277 278 279 279 280 280 282 283 285 286 288 289 290 291 292 292 293 293 293 293 293 291 285 279 277 278 281 283 288 291 293 295 298 301 304 307 309 310 311 313 314 315 316 318 319 319 319 320 321 324 326 328 329 330 331 331 331 330 329 329 329 331 333 337 341 343 343 343 342
266 266 267 267 267 268 270 271 273 274 275 275 274 274 274 275 276 277 278 278 279 280 281 283 285 287 289 290 290 291 291 291 291 292 292 292 291 288 283 277 275 276 279 282 285 288 290 293 296 299 302 305 306 308 309 310 311 312 314 316 316 317 318 318 319 320 322 324 327 328 330 331 332 332 331 330 329 331 334 338 342 344 345 346 347
264 265 265 265 266 269 272 273 272 273 274 274 273 273 274 275 277 277 278 279 279 280 282 284 286 288 289 289 290 291 291 290 290 290 290 290 289 285 279 273 272 275 278 281 283 285 288 291 295 298 301 303 305 306 307 308 309 312 313 314 314 316 317 318 318 318 319 321 323 326 328 329 330 331 331 328 326 328 332 335 338 340 342 344 345
266 266 266 266 267 270 271 271 271 271 272 272 272 274 276 278 278 277 278 279 280 282 284 285 286 287 287 287 288 288 289 288 288 287 287 286 285 281 274 269 270 273 277 279 282 285 288 291 294 297 299 301 304 305 306 307 308 310 312 312 313 314 316 316 317 317 317 318 319 322 325 327 328 329 328 326 323 323 326 329 333 336 337 340 342